Theta_e
292 285 279 282 284 285 284 283 281 284 286 282 282 281 283 284 284 284 284 286 288 289 291 294 295 295 296 296 296 296 296 295 294 292 292 291 291 292 292 293 294 294 293 293
287 281 286 288 288 286 285 281 280 283 285 282 280 280 282 284 283 284 285 285 287 288 290 292 294 294 294 295 295 295 296 295 295 294 294 293 292 292 293 294 294 294 294 293
284 285 289 287 283 284 280 280 278 279 281 282 279 278 280 283 284 284 285 285 286 287 288 290 292 292 293 293 294 295 296 296 295 295 294 292 292 291 291 291 292 293 294 293
283 287 287 283 281 283 281 282 281 280 274 272 278 271 278 280 281 282 283 282 283 285 288 290 290 291 291 292 294 295 296 296 296 295 293 292 290 289 291 291 292 292 293 292
282 282 282 281 281 283 280 282 280 278 271 270 272 266 273 279 278 280 280 282 282 283 286 287 288 289 289 290 290 293 294 295 295 294 293 291 290 291 291 291 291 291 291 292
281 285 283 282 283 282 282 279 279 277 270 264 265 267 272 276 279 279 281 281 283 283 284 285 287 288 287 288 288 289 291 290 292 292 292 291 291 290 289 289 289 289 290 290
280 280 283 284 280 282 280 272 264 265 265 265 261 268 275 279 280 281 280 281 282 283 283 284 284 285 285 285 286 288 288 288 289 289 289 289 288 288 288 288 288 288 288 289
271 270 278 282 280 279 277 272 265 258 264 267 261 266 275 278 280 281 282 282 283 283 283 283 284 284 284 284 284 285 285 286 286 287 287 287 287 287 287 287 287 287 287 288
270 273 280 280 280 279 275 267 275 262 255 261 266 271 278 278 277 279 280 281 281 282 282 282 282 282 282 282 282 282 283 283 284 285 285 285 286 285 285 286 286 286 287 289
277 268 274 280 280 278 276 277 268 265 260 257 263 260 272 271 273 274 278 278 279 281 282 282 283 283 283 282 281 282 282 282 283 283 283 284 284 284 284 284 284 284 285 287
276 270 271 277 269 269 270 268 269 270 270 264 259 268 272 273 275 275 276 278 275 276 280 281 282 283 283 282 281 281 281 281 282 282 282 282 282 283 283 283 283 284 284 285
279 276 267 271 276 277 276 272 275 269 265 266 268 269 274 273 270 272 275 276 275 273 276 275 279 280 281 281 280 280 281 280 281 282 282 282 282 282 281 281 282 283 283 284
280 269 262 270 272 275 272 276 276 271 274 266 267 270 268 265 267 270 274 274 275 271 269 272 276 278 278 278 279 279 280 280 281 281 281 280 280 280 280 281 282 283 283 283
284 276 268 268 268 268 268 273 276 272 263 268 269 275 276 270 274 273 273 273 269 267 270 272 273 275 276 276 275 276 278 278 279 279 279 279 279 280 280 280 281 282 282 281
279 267 272 272 268 268 270 271 271 270 273 269 275 270 276 270 275 278 279 270 270 272 272 273 272 273 272 271 273 273 273 275 275 276 275 276 278 279 279 279 280 281 281 281
279 266 267 264 273 274 269 275 273 273 274 269 274 274 280 268 263 267 273 273 271 274 275 273 273 273 273 271 272 273 272 274 271 271 273 274 275 276 276 278 279 279 280 280
272 265 261 262 265 264 263 267 272 269 265 272 267 275 269 266 265 268 272 271 273 273 273 270 271 271 273 271 271 271 273 269 269 271 273 273 273 273 275 275 277 277 278 279
267 269 258 263 259 257 271 273 272 270 273 271 270 272 267 268 268 270 267 272 273 271 271 271 271 271 271 269 269 270 267 269 267 270 271 272 272 272 274 274 275 275 276 276
277 273 263 262 251 266 272 272 272 271 272 275 274 275 272 270 273 276 276 274 274 273 274 273 274 273 271 272 275 266 268 268 264 270 272 272 272 272 273 274 274 275 273 275
276 278 271 257 257 258 270 273 275 274 268 274 276 276 274 274 269 272 276 278 277 278 279 279 279 279 278 278 278 275 273 272 273 275 274 273 273 272 272 274 274 274 273 276
270 271 271 268 264 265 273 275 275 264 271 275 276 277 275 273 274 275 277 277 278 279 279 279 278 278 278 279 278 277 277 274 278 279 276 275 275 275 275 274 272 273 273 274
267 265 264 266 263 262 275 274 271 276 276 276 275 276 276 276 276 276 277 277 277 277 278 279 278 278 279 279 278 278 277 279 279 278 277 277 277 278 278 275 275 273 273 273
268 271 266 268 269 275 275 276 278 277 276 276 276 277 276 276 275 276 276 277 277 277 277 278 277 277 278 278 277 277 278 279 278 274 275 275 276 277 277 275 275 274 274 273
272 273 269 269 272 276 277 278 278 279 278 279 278 278 276 275 276 275 275 275 275 275 274 273 271 272 273 275 275 275 277 276 269 272 274 274 274 275 274 274 275 274 273 272
273 270 266 267 273 273 274 276 277 278 278 277 278 277 278 277 277 277 276 275 275 274 273 271 271 272 273 274 274 275 276 273 272 273 274 274 275 276 277 275 275 274 274 274
273 272 269 271 277 275 276 277 275 276 277 278 277 278 277 278 278 277 276 276 276 274 274 272 273 272 273 274 274 274 274 273 272 273 274 274 275 277 276 274 273 277 277 277
Wind_Speed
4 8 3 1 2 1 2 1 0 1 3 2 1 2 2 3 6 6 5 4 4 5 4 6 7 7 5 6 7 8 8 6 5 3 3 1 2 2 3 3 4 4 3 3
7 4 3 3 4 4 5 2 2 3 3 3 2 5 2 2 2 5 6 4 4 3 6 7 8 8 6 5 7 7 7 7 5 4 2 2 2 2 2 2 4 4 4 4
5 1 5 3 6 5 4 2 3 2 7 2 6 5 3 1 4 4 4 3 4 4 5 5 7 7 7 7 4 7 7 7 5 4 3 2 2 2 2 2 3 4 5 5
5 5 4 5 5 3 1 3 2 4 5 3 5 6 6 6 4 2 3 4 4 4 4 5 6 7 8 7 6 4 4 6 4 5 3 3 2 2 2 2 2 4 4 5
3 5 6 7 3 3 1 3 3 3 4 4 6 5 8 5 6 5 4 4 4 4 5 6 6 6 5 7 7 6 6 5 3 3 3 2 2 2 2 2 3 3 4 5
3 2 4 1 2 3 2 3 6 4 4 4 4 5 8 6 8 5 4 5 6 5 5 4 4 5 6 6 7 7 7 6 6 4 4 1 2 3 3 3 4 4 3 4
5 3 3 4 1 3 6 6 5 7 5 7 2 1 13 6 5 10 10 8 6 5 4 4 5 5 6 7 7 6 7 6 6 6 6 5 4 4 4 5 4 5 4 3
4 7 3 5 2 2 3 6 7 6 2 6 3 7 8 3 2 7 7 7 6 5 4 4 4 4 4 5 6 6 6 5 6 6 6 5 5 3 3 3 4 4 3 4
4 4 1 3 2 3 2 1 3 8 2 5 4 9 8 4 3 5 7 6 6 6 5 5 4 3 4 3 4 4 4 4 5 5 5 5 5 5 5 6 4 4 5 4
3 4 2 3 1 2 4 2 5 4 2 6 7 8 9 6 10 5 8 9 8 6 6 4 3 2 2 2 2 4 4 4 4 5 4 4 5 5 5 5 6 6 6 5
4 5 5 3 4 7 2 2 4 4 5 6 3 9 8 10 12 15 10 9 9 8 8 6 4 3 3 1 3 4 4 4 5 5 5 6 5 6 6 5 6 6 6 6
0 4 3 10 1 1 2 4 5 6 7 3 2 13 4 7 7 9 10 9 8 6 6 5 5 4 3 2 3 3 3 4 5 5 5 6 6 6 6 6 6 6 6 6
3 2 4 10 5 5 2 5 5 2 3 8 4 11 3 4 6 8 10 9 8 5 4 5 5 5 4 4 4 4 4 5 5 5 5 5 6 6 6 6 7 7 6 7
1 2 8 9 9 4 3 6 6 6 4 4 10 23 13 3 7 6 11 9 5 5 5 4 4 6 5 5 5 6 6 5 5 5 5 6 6 6 6 6 7 7 6 7
4 5 3 7 6 4 7 12 7 11 14 10 25 11 18 7 9 11 11 5 6 8 6 7 5 6 5 6 5 4 5 6 3 4 5 7 6 6 6 6 6 7 7 8
2 4 2 7 3 3 6 18 14 17 16 11 22 26 19 6 2 3 10 9 9 8 8 7 7 7 9 6 6 6 7 8 1 5 7 6 6 6 7 7 7 7 8 8
3 4 4 8 4 5 8 12 14 6 5 8 10 20 3 4 6 7 9 8 11 10 9 7 8 8 8 7 7 8 8 3 5 6 8 7 7 7 9 7 7 8 8 9
5 3 2 7 5 2 10 5 5 10 9 12 8 10 6 6 6 7 6 8 11 8 8 8 7 7 8 6 7 7 5 7 5 7 8 8 7 8 9 7 9 8 6 8
1 4 3 2 4 10 8 2 4 7 7 7 13 13 6 3 2 6 6 7 6 7 7 8 7 7 6 7 9 4 6 6 3 9 8 8 7 8 8 9 10 9 5 8
1 2 5 3 2 9 6 2 0 2 8 2 6 7 6 5 2 5 3 5 7 8 6 7 8 5 6 8 7 5 8 6 8 9 9 7 8 8 9 10 11 8 6 9
2 5 14 9 7 11 11 6 1 6 8 1 2 5 8 6 6 3 5 3 4 5 7 7 6 7 8 8 7 8 7 7 12 9 6 7 8 10 10 9 7 8 8 9
8 6 6 3 3 12 6 4 8 6 2 3 3 4 7 6 5 6 6 6 6 7 6 7 5 6 7 7 6 9 9 13 9 8 8 9 11 10 10 8 9 7 8 10
6 9 6 12 10 3 4 5 5 3 6 5 5 8 9 9 8 8 7 8 8 8 6 6 6 7 8 7 7 9 14 11 8 5 9 11 12 11 10 9 10 8 9 9
7 6 5 4 6 14 10 7 9 9 13 11 9 9 7 8 9 8 7 7 6 6 7 6 6 8 9 8 8 10 11 10 5 9 11 11 11 11 8 7 8 8 8 9
5 3 2 8 12 12 8 9 9 10 10 9 8 9 12 11 12 11 8 8 8 8 7 5 7 8 11 10 10 10 12 7 8 10 11 12 9 11 11 9 9 9 10 11
7 7 5 9 12 7 15 10 6 9 13 10 9 13 11 11 14 7 9 8 8 8 7 7 9 8 12 11 12 11 11 8 9 11 10 9 9 10 9 9 10 17 23 26
Wind_Direction
19 66 79 317 319 278 277 266 312 288 9 343 345 285 265 89 88 109 108 94 75 50 341 0 346 346 88 151 152 160 156 163 137 115 116 104 227 232 253 236 236 218 223 224
27 85 306 305 355 72 42 73 310 305 360 352 43 280 233 165 127 156 141 109 76 37 15 5 1 6 22 155 161 152 157 156 163 153 171 164 176 222 216 229 237 229 227 227
99 8 325 66 29 51 38 42 357 260 326 14 346 313 198 55 102 97 66 86 61 64 39 12 13 17 19 37 161 162 168 167 169 161 111 73 50 26 1 298 273 244 230 232
71 332 36 56 67 31 100 345 11 13 44 247 28 277 264 208 186 131 92 85 88 61 43 31 20 22 19 12 34 112 152 159 161 158 155 173 189 218 244 247 260 282 249 244
271 16 26 51 360 357 112 36 44 84 88 50 343 69 266 143 229 204 178 137 97 66 70 43 32 27 19 21 31 43 78 79 97 132 147 165 202 232 278 293 313 306 294 260
101 62 56 86 35 45 40 49 34 56 79 21 256 125 276 191 206 184 185 168 141 116 91 64 36 33 33 29 45 49 59 39 31 34 28 17 281 299 318 315 316 312 298 285
360 18 346 31 55 30 57 49 335 353 8 224 302 25 243 241 203 179 167 167 156 137 116 94 70 50 43 40 36 58 61 45 31 38 31 17 2 338 315 305 301 311 308 291
116 331 19 354 69 163 85 136 153 217 241 269 3 242 256 295 90 119 132 150 146 138 135 127 117 95 64 48 44 41 45 49 30 30 20 15 15 1 331 320 310 296 287 287
99 297 345 39 0 76 250 60 149 100 42 41 262 294 298 78 61 134 160 162 167 171 170 158 142 132 117 77 45 40 32 21 19 6 1 354 355 353 335 326 318 309 305 302
169 4 253 276 146 13 145 140 42 3 339 301 292 277 246 241 218 224 199 197 195 197 195 192 163 169 199 117 30 21 16 7 343 346 351 346 339 335 328 325 318 315 307 312
130 99 290 30 196 180 46 341 41 128 149 191 272 263 214 216 197 203 209 204 199 210 212 212 227 244 253 279 3 351 353 342 332 333 330 337 330 325 322 311 304 300 300 308
241 141 241 226 307 93 142 183 162 136 258 255 188 266 198 208 217 201 214 213 206 209 221 242 253 265 273 284 310 308 304 308 302 301 312 311 310 313 313 308 301 295 293 296
171 305 355 339 12 0 197 218 203 72 49 218 163 271 321 304 295 250 221 223 217 195 238 250 252 233 245 265 276 274 271 274 280 285 298 300 295 294 289 288 291 292 289 289
127 195 175 203 206 147 194 236 214 137 147 227 220 262 276 323 268 243 230 235 254 241 236 250 268 250 251 265 275 287 294 282 288 294 291 287 284 277 276 280 282 283 281 280
122 213 223 264 192 170 211 241 192 196 224 204 265 255 264 226 230 228 225 193 225 250 252 240 244 254 260 267 285 288 278 283 247 277 287 277 277 276 274 271 271 274 274 279
48 272 77 290 358 201 237 256 228 229 247 266 262 280 281 238 289 248 223 197 218 232 236 241 245 249 257 256 269 278 274 278 232 279 274 274 277 283 279 281 283 284 288 285
131 117 53 264 351 336 314 234 210 194 215 198 218 247 251 278 253 243 240 201 215 224 233 247 249 244 249 245 242 259 257 273 290 281 283 282 275 273 277 274 280 276 282 290
152 111 109 267 27 301 244 203 195 193 236 225 280 262 204 220 240 246 226 198 217 221 241 242 245 253 253 245 250 248 258 263 254 272 270 274 273 271 277 272 271 269 268 274
283 132 292 257 191 298 286 318 162 178 273 219 226 255 227 212 272 287 217 208 212 205 229 232 232 234 240 244 250 219 269 252 240 262 262 260 254 260 267 271 269 265 253 274
330 235 166 75 179 243 236 254 152 114 289 240 207 246 179 152 164 251 171 180 213 225 228 241 252 253 250 259 249 228 250 253 261 262 250 246 249 246 252 254 259 258 239 270
172 251 226 223 242 282 248 233 104 88 262 233 255 227 165 193 206 206 167 228 226 231 248 258 255 247 255 264 263 264 256 247 262 271 251 255 263 266 263 258 251 257 255 271
180 180 205 203 196 277 174 77 167 238 295 251 247 223 210 230 217 223 234 238 249 270 281 279 267 263 264 264 260 270 264 264 269 266 265 269 272 272 275 261 264 256 263 273
266 194 203 186 211 256 228 258 266 263 253 250 225 238 220 221 226 230 236 245 249 257 263 259 251 268 273 265 258 270 270 278 275 261 264 267 272 268 265 259 265 271 270 274
248 184 237 44 255 256 279 275 269 266 258 253 241 242 221 225 231 235 241 244 243 249 250 246 253 262 267 267 257 248 269 269 246 263 271 273 273 274 263 250 255 263 267 273
200 93 237 261 281 292 277 263 270 288 271 264 258 236 233 228 242 236 239 242 239 244 249 227 242 253 260 268 264 263 265 264 260 267 269 271 269 269 273 255 255 258 259 260
186 216 184 258 281 282 302 304 293 283 282 268 259 266 244 231 247 221 238 238 239 246 248 247 250 247 262 266 266 265 261 253 256 269 271 269 271 278 274 269 275 263 272 279